• In Österreich
  • Länderverzeichnis
  • Für 7 Tage
  • Wassertemperatur
  • Satellitenkarten
  • Wetterkarte
  • News
  • Widgets
  • user-avatar
    Anmelden

    Stündliche Wetter Joro

    Heute, 23 Juni, Samstag

    Zeit Temperatur Niederschläge Wind Luftdruck Luftfeuchtigkeit
    00:00 +23°C° 0 mm 1 m/S 700 mmHg 92%
    01:00 +23°C° 0 mm 1 m/S 699 mmHg 92%
    02:00 +23°C° 0 mm 1 m/S 699 mmHg 93%
    03:00 +23°C° 0 mm 1 m/S 699 mmHg 93%
    04:00 +23°C° 0 mm 1 m/S 699 mmHg 93%
    05:00 +23°C° 0 mm 1 m/S 699 mmHg 93%
    06:00 +23°C° 0 mm 1 m/S 699 mmHg 92%
    07:00 +25°C° 0 mm 1 m/S 700 mmHg 82%
    08:00 +27°C° 0 mm 1 m/S 700 mmHg 72%
    09:00 +30°C° 0 mm 1 m/S 701 mmHg 61%
    10:00 +31°C° 0 mm 1 m/S 701 mmHg 54%
    11:00 +33°C° 0 mm 1 m/S 701 mmHg 47%
    12:00 +35°C° 0 mm 2 m/S 701 mmHg 40%
    13:00 +35°C° 0 mm 2 m/S 700 mmHg 41%
    14:00 +35°C° 0 mm 2 m/S 700 mmHg 41%
    15:00 +35°C° 0 mm 2 m/S 699 mmHg 41%
    16:00 +32°C° 0,1 mm 2 m/S 699 mmHg 51%
    17:00 +30°C° 0,1 mm 1 m/S 698 mmHg 60%
    18:00 +28°C° 0,1 mm 1 m/S 698 mmHg 70%
    19:00 +27°C° 0,2 mm 1 m/S 699 mmHg 75%
    20:00 +25°C° 0,2 mm 1 m/S 699 mmHg 81%
    21:00 +24°C° 0,2 mm 1 m/S 699 mmHg 87%
    22:00 +23°C° 0 mm 1 m/S 699 mmHg 88%
    23:00 +23°C° 0 mm 1 m/S 699 mmHg 89%

    Morgen, 24 Juni, Sonntag

    Zeit Temperatur Niederschläge Wind Luftdruck Luftfeuchtigkeit
    00:00 +23°C° 0 mm 1 m/S 699 mmHg 90%
    01:00 +22°C° 0 mm 1 m/S 699 mmHg 91%
    02:00 +22°C° 0 mm 1 m/S 699 mmHg 91%
    03:00 +22°C° 0 mm 1 m/S 698 mmHg 92%
    04:00 +22°C° 0 mm 1 m/S 698 mmHg 92%
    05:00 +22°C° 0 mm 1 m/S 699 mmHg 92%
    06:00 +22°C° 0 mm 1 m/S 699 mmHg 92%
    07:00 +24°C° 0 mm 1 m/S 699 mmHg 81%
    08:00 +27°C° 0 mm 1 m/S 700 mmHg 69%
    09:00 +29°C° 0 mm 1 m/S 700 mmHg 58%
    10:00 +31°C° 0 mm 1 m/S 700 mmHg 53%
    11:00 +32°C° 0 mm 1 m/S 700 mmHg 48%
    12:00 +34°C° 0 mm 2 m/S 700 mmHg 43%
    13:00 +34°C° 0,2 mm 2 m/S 700 mmHg 47%
    14:00 +32°C° 0,2 mm 2 m/S 699 mmHg 51%
    15:00 +32°C° 0,2 mm 2 m/S 698 mmHg 54%
    16:00 +30°C° 1,9 mm 1 m/S 698 mmHg 63%
    17:00 +28°C° 1,9 mm 1 m/S 698 mmHg 71%
    18:00 +26°C° 1,9 mm 1 m/S 698 mmHg 79%
    19:00 +25°C° 2,1 mm 1 m/S 699 mmHg 83%
    20:00 +25°C° 2,1 mm 1 m/S 699 mmHg 87%
    21:00 +24°C° 2,1 mm 1 m/S 700 mmHg 91%
    22:00 +23°C° 0,8 mm 1 m/S 700 mmHg 92%
    23:00 +23°C° 0,8 mm 1 m/S 700 mmHg 92%

    übermorgen, 25 Juni, Montag

    Zeit Temperatur Niederschläge Wind Luftdruck Luftfeuchtigkeit
    00:00 +23°C° 0,8 mm 1 m/S 700 mmHg 92%
    01:00 +23°C° 0 mm 1 m/S 699 mmHg 93%
    02:00 +22°C° 0 mm 1 m/S 699 mmHg 93%
    03:00 +22°C° 0 mm 1 m/S 698 mmHg 94%
    04:00 +22°C° 0 mm 1 m/S 699 mmHg 94%
    05:00 +22°C° 0 mm 1 m/S 699 mmHg 94%
    06:00 +22°C° 0 mm 1 m/S 699 mmHg 94%
    07:00 +24°C° 0 mm 1 m/S 700 mmHg 84%
    08:00 +26°C° 0 mm 1 m/S 700 mmHg 74%
    09:00 +28°C° 0 mm 1 m/S 701 mmHg 64%
    10:00 +30°C° 0 mm 1 m/S 701 mmHg 57%
    11:00 +31°C° 0 mm 1 m/S 701 mmHg 50%
    12:00 +34°C° 0 mm 2 m/S 701 mmHg 42%
    13:00 +34°C° 0 mm 2 m/S 700 mmHg 44%
    14:00 +34°C° 0 mm 2 m/S 699 mmHg 45%
    15:00 +32°C° 0 mm 2 m/S 699 mmHg 46%
    16:00 +30°C° 0,8 mm 2 m/S 699 mmHg 56%
    17:00 +28°C° 0,8 mm 1 m/S 699 mmHg 67%
    18:00 +26°C° 0,8 mm 1 m/S 699 mmHg 77%
    19:00 +25°C° 1,1 mm 1 m/S 699 mmHg 82%
    20:00 +24°C° 1,1 mm 1 m/S 699 mmHg 87%
    21:00 +23°C° 1,1 mm 1 m/S 700 mmHg 92%
    22:00 +23°C° 0 mm 1 m/S 700 mmHg 92%
    23:00 +22°C° 0 mm 1 m/S 700 mmHg 93%

    26 Juni, Dienstag

    Zeit Temperatur Niederschläge Wind Luftdruck Luftfeuchtigkeit
    00:00 +22°C° 0 mm 1 m/S 699 mmHg 93%
    01:00 +22°C° 0 mm 1 m/S 699 mmHg 93%
    02:00 +22°C° 0 mm 1 m/S 699 mmHg 93%
    03:00 +22°C° 0 mm 1 m/S 699 mmHg 93%
    04:00 +22°C° 0 mm 1 m/S 699 mmHg 93%
    05:00 +22°C° 0 mm 1 m/S 699 mmHg 92%
    06:00 +22°C° 0 mm 1 m/S 699 mmHg 92%
    07:00 +24°C° 0 mm 1 m/S 700 mmHg 84%
    08:00 +26°C° 0 mm 1 m/S 701 mmHg 75%
    09:00 +28°C° 0 mm 1 m/S 701 mmHg 67%
    10:00 +29°C° 0 mm 1 m/S 701 mmHg 62%
    11:00 +30°C° 0 mm 1 m/S 701 mmHg 57%
    12:00 +31°C° 0 mm 2 m/S 701 mmHg 52%
    13:00 +31°C° 0,1 mm 2 m/S 700 mmHg 52%
    14:00 +31°C° 0,1 mm 2 m/S 699 mmHg 53%
    15:00 +31°C° 0,1 mm 2 m/S 699 mmHg 54%
    16:00 +29°C° 1 mm 1 m/S 699 mmHg 65%
    17:00 +27°C° 1 mm 1 m/S 699 mmHg 75%
    18:00 +25°C° 1 mm 1 m/S 699 mmHg 85%
    19:00 +24°C° 0,8 mm 1 m/S 700 mmHg 88%
    20:00 +24°C° 0,8 mm 1 m/S 700 mmHg 90%
    21:00 +21°C° 0,8 mm 0 m/S 700 mmHg 92%
    22:00 +21°C° 0 mm 0 m/S 700 mmHg 93%
    23:00 +20°C° 0 mm 0 m/S 700 mmHg 94%

    27 Juni, Mittwoch

    Zeit Temperatur Niederschläge Wind Luftdruck Luftfeuchtigkeit
    00:00 +22°C° 0 mm 1 m/S 700 mmHg 95%
    01:00 +22°C° 0,1 mm 1 m/S 699 mmHg 95%
    02:00 +20°C° 0,1 mm 0 m/S 699 mmHg 95%
    03:00 +19°C° 0,1 mm 0 m/S 699 mmHg 95%
    04:00 +20°C° 0 mm 0 m/S 699 mmHg 95%
    05:00 +20°C° 0 mm 0 m/S 699 mmHg 94%
    06:00 +20°C° 0 mm 0 m/S 699 mmHg 94%
    07:00 +22°C° 0 mm 0 m/S 700 mmHg 84%
    08:00 +26°C° 0 mm 1 m/S 700 mmHg 75%
    09:00 +28°C° 0 mm 1 m/S 701 mmHg 66%
    10:00 +28°C° 0,5 mm 1 m/S 701 mmHg 69%
    11:00 +28°C° 0,5 mm 1 m/S 700 mmHg 72%
    12:00 +27°C° 0,5 mm 1 m/S 700 mmHg 75%
    13:00 +27°C° 1,5 mm 1 m/S 700 mmHg 78%
    14:00 +27°C° 1,5 mm 1 m/S 699 mmHg 81%
    15:00 +26°C° 1,5 mm 1 m/S 699 mmHg 84%
    16:00 +26°C° 1,7 mm 1 m/S 699 mmHg 88%
    17:00 +25°C° 1,7 mm 1 m/S 699 mmHg 91%
    18:00 +24°C° 1,7 mm 1 m/S 699 mmHg 94%
    19:00 +24°C° 0,6 mm 1 m/S 700 mmHg 95%
    20:00 +23°C° 0,6 mm 1 m/S 700 mmHg 96%
    21:00 +21°C° 0,6 mm 0 m/S 700 mmHg 96%
    22:00 +21°C° 0,1 mm 0 m/S 700 mmHg 96%
    23:00 +22°C° 0,1 mm 1 m/S 700 mmHg 97%

    28 Juni, Donnerstag

    Zeit Temperatur Niederschläge Wind Luftdruck Luftfeuchtigkeit
    00:00 +22°C° 0,1 mm 1 m/S 700 mmHg 97%
    01:00 +22°C° 0,1 mm 1 m/S 699 mmHg 97%
    02:00 +22°C° 0,1 mm 1 m/S 699 mmHg 97%
    03:00 +22°C° 0,1 mm 1 m/S 699 mmHg 97%
    04:00 +22°C° 0,1 mm 1 m/S 699 mmHg 96%
    05:00 +22°C° 0,1 mm 1 m/S 699 mmHg 96%
    06:00 +22°C° 0,1 mm 1 m/S 699 mmHg 95%
    07:00 +24°C° 0,1 mm 1 m/S 700 mmHg 88%
    08:00 +25°C° 0,1 mm 1 m/S 700 mmHg 81%
    09:00 +27°C° 0,1 mm 1 m/S 701 mmHg 75%
    10:00 +28°C° 0,2 mm 1 m/S 701 mmHg 68%
    11:00 +29°C° 0,2 mm 2 m/S 700 mmHg 62%
    12:00 +30°C° 0,2 mm 2 m/S 700 mmHg 56%
    13:00 +30°C° 0,6 mm 2 m/S 700 mmHg 59%
    14:00 +30°C° 0,6 mm 2 m/S 699 mmHg 63%
    15:00 +29°C° 0,6 mm 2 m/S 699 mmHg 66%
    16:00 +28°C° 0,6 mm 2 m/S 699 mmHg 70%
    17:00 +27°C° 0,6 mm 1 m/S 699 mmHg 75%
    18:00 +26°C° 0,6 mm 1 m/S 699 mmHg 79%
    19:00 +24°C° 0,1 mm 1 m/S 700 mmHg 84%
    20:00 +23°C° 0,1 mm 1 m/S 700 mmHg 89%
    21:00 +22°C° 0,1 mm 1 m/S 700 mmHg 93%
    22:00 +22°C° 0 mm 1 m/S 700 mmHg 94%
    23:00 +21°C° 0 mm 1 m/S 700 mmHg 95%
    Mehr zeigen